Change the Weather History Date:

Wednesday, June 6, 2012

  Actual Average Record
Temperature  
Mean Temperature 62 °F 62 °F  
Max Temperature 73 °F 73 °F 90 °F (1973)
Min Temperature 51 °F 50 °F 38 °F (1958)
Degree Days  
Heating Degree Days 4    
Cooling Degree Days 0 1  
Month to date cooling degree days 0 6  
Year to date cooling degree days 38 20  
Since 1 June cooling degree days 0 6  
Growing Degree Days 12 (Base 50)    
Moisture  
Dew Point 51 °F    
Average Humidity 67    
Maximum Humidity 96    
Minimum Humidity 38    
Precipitation  
Precipitation T in 0.11 in 1.09 in (1953)
Month to date precipitation 1.06 0.66  
Year to date precipitation 11.27 12.59  
Sea Level Pressure  
Sea Level Pressure 29.96 in    
Wind  
Wind Speed 4 mph (ENE)    
Max Wind Speed 10 mph    
Max Gust Speed 15 mph    
Visibility 10 miles    
Events Rain    
T = Trace of Precipitation, MM = Missing Value Source: NWS Daily Summary

Daily Weather History Graph

Daily Weather History Graph

Search for Another Location

Airport or City:

Trip Planner

Search our weather history database for the weather conditions in past years. The results will help you decide how hot, cold, wet, or windy it might be!

Date:

Astronomy

Jun. 06, 2012 Rise Set
Actual Time 5:13 AM EDT 8:42 PM EDT
Civil Twilight 4:36 AM EDT 9:19 PM EDT
Nautical Twilight 3:48 AM EDT 10:08 PM EDT
Astronomical Twilight 2:46 AM EDT 11:11 PM EDT
Moon 10:48 PM EDT (6/6) 7:34 AM EDT (6/6)
Length of Visible Light 16h 42m
Length of Day
15h 29m
Waning Gibbous, 93% of the Moon is Illuminated
Jun 6
Waning Gibbous
Jun 11
Last Quarter
Jun 19
New
Jun 26
First Quarter
Jul 3
Full

Hourly Weather History & Observations

Time (EDT) Temp. Dew Point Humidity Pressure Visibility Wind Dir Wind Speed Gust Speed Precip Events Conditions
12:53 AM 57.9 °F 53.1 °F 84% 29.96 in 10.0 mi Calm Calm - 0.00 in Rain Light Rain
1:53 AM 55.9 °F 55.0 °F 97% 29.96 in 10.0 mi Calm Calm - 0.00 in   Overcast
2:53 AM 57.2 °F 53.6 °F 88% 29.95 in 10.0 mi SSW 5.8 mph - N/A   Overcast
3:53 AM 55.9 °F 51.1 °F 84% 29.95 in 10.0 mi SSW 4.6 mph - N/A   Clear
4:53 AM 52.0 °F 50.0 °F 93% 29.96 in 10.0 mi Calm Calm - N/A   Clear
5:53 AM 51.1 °F 50.0 °F 96% 29.97 in 8.0 mi Calm Calm - N/A   Clear
6:53 AM 55.9 °F 53.1 °F 90% 29.98 in 10.0 mi Calm Calm - N/A   Clear
7:53 AM 60.1 °F 54.0 °F 80% 29.98 in 10.0 mi ENE 5.8 mph - N/A   Clear
8:53 AM 61.0 °F 54.0 °F 78% 30.00 in 10.0 mi NNE 6.9 mph - N/A   Partly Cloudy
9:53 AM 66.0 °F 55.9 °F 70% 29.99 in 10.0 mi Variable 4.6 mph - N/A   Clear
10:53 AM 66.0 °F 53.1 °F 63% 29.99 in 10.0 mi NE 5.8 mph - N/A   Clear
11:53 AM 68.0 °F 51.1 °F 55% 29.98 in 10.0 mi Variable 6.9 mph - N/A   Clear
12:53 PM 70.0 °F 48.9 °F 47% 29.97 in 10.0 mi NE 4.6 mph - N/A   Clear
1:53 PM 72.0 °F 48.9 °F 44% 29.96 in 10.0 mi NNE 8.1 mph - N/A   Clear
2:53 PM 72.0 °F 45.0 °F 38% 29.94 in 10.0 mi East 8.1 mph - N/A   Clear
3:53 PM 72.0 °F 46.0 °F 40% 29.92 in 10.0 mi East 4.6 mph - N/A   Clear
4:53 PM 71.6 °F 44.6 °F 38% 29.92 in 10.0 mi NE 6.9 mph - N/A   Clear
5:53 PM 71.6 °F 44.6 °F 38% 29.93 in 10.0 mi ENE 4.6 mph - N/A   Clear
6:53 PM 69.1 °F 48.9 °F 49% 29.94 in 10.0 mi East 5.8 mph - N/A   Overcast
7:53 PM 66.0 °F 50.0 °F 56% 29.95 in 10.0 mi NE 5.8 mph - N/A   Overcast
8:53 PM 64.0 °F 50.0 °F 60% 29.95 in 10.0 mi NE 5.8 mph - N/A   Overcast
9:53 PM 62.1 °F 50.0 °F 65% 29.97 in 10.0 mi ENE 3.5 mph - N/A   Overcast
10:53 PM 62.1 °F 51.1 °F 67% 29.98 in 10.0 mi Calm Calm - N/A   Overcast
11:53 PM 60.1 °F 53.1 °F 78% 29.98 in 10.0 mi Calm Calm - N/A   Overcast